Location: Newark
(46.7000°N, 60.6000°W)
Time: 05:11:28
(UTC+00:00)

Transit 2A Rocket - Pass Details

Date: 28 October 2020
Orbit: 588 x 914 km, 66.7° (Epoch: 27 November)

Event Time Altitude Azimuth Distance (km) Brightness Sun altitude
Rises 21:03:23 0° 329° (NNW) 3,352 8.5 -2.6°
Reaches altitude 10° 21:06:10 10° 339° (NNW) 2,361 7.6 -3.1°
Maximum altitude 21:11:01 33° 43° (NE) 1,236 5.7 -3.9°
Drops below altitude 10° 21:15:27 10° 107° (ESE) 2,152 6.8 -4.6°
Sets 21:17:53 0° 117° (ESE) 3,013 7.6 -5.0°
